ETH817 HAAB-HRYR

Flight info

Callsign ETH817
Flight time 1h 59m
Altitude 38000
Route ETGOM1A ETGOM UL432 LOV UM216 PATAR UL432 ALSAR ALSAR2A
Aircraft B737/M-SDE2E3FGHIRWXY/LB1

Departure

Time 2026-04-21 18:45
Airport Addis Ababa Bole International Airport (HAAB)

Arrival

Time 2026-04-21 20:44
Airport Kigali International Airport (HRYR)
Time Latitude Longitude Altitude Speed Heading
2026-04-21 18:18 8.97979 38.79433 7647 ft 0 kts 164°
2026-04-21 18:35 8.97981 38.79432 7675 ft 3 kts 164°
2026-04-21 18:35 8.98007 38.79425 7618 ft 4 kts 164°
2026-04-21 18:35 8.98033 38.79417 7615 ft 4 kts 165°
2026-04-21 18:36 8.98058 38.79412 7615 ft 3 kts 171°
2026-04-21 18:36 8.98075 38.79411 7615 ft 2 kts 212°
2026-04-21 18:36 8.98083 38.79420 7615 ft 2 kts 252°
2026-04-21 18:36 8.98085 38.79429 7620 ft 0 kts 257°
2026-04-21 18:39 8.98085 38.79428 7614 ft 0 kts 256°
2026-04-21 18:39 8.98081 38.79421 7620 ft 2 kts 240°
2026-04-21 18:39 8.98070 38.79398 7614 ft 5 kts 246°
2026-04-21 18:39 8.98052 38.79345 7614 ft 11 kts 252°
2026-04-21 18:40 8.98027 38.79258 7615 ft 15 kts 256°
2026-04-21 18:40 8.97992 38.79143 7615 ft 19 kts 251°
2026-04-21 18:40 8.97951 38.79012 7615 ft 20 kts 253°
2026-04-21 18:40 8.97910 38.78872 7615 ft 21 kts 255°
2026-04-21 18:41 8.97854 38.78759 7616 ft 16 kts 198°
2026-04-21 18:41 8.97743 38.78771 7616 ft 17 kts 158°
2026-04-21 18:41 8.97644 38.78797 7618 ft 11 kts 197°
2026-04-21 18:41 8.97624 38.78778 7618 ft 1 kts 235°
2026-04-21 18:42 8.97612 38.78777 7619 ft 3 kts 172°
2026-04-21 18:42 8.97583 38.78775 7619 ft 6 kts 223°
2026-04-21 18:42 8.97558 38.78727 7619 ft 11 kts 242°
2026-04-21 18:42 8.97511 38.78639 7622 ft 18 kts 243°
2026-04-21 18:43 8.97466 38.78501 7620 ft 23 kts 252°
2026-04-21 18:43 8.97430 38.78360 7625 ft 17 kts 253°
2026-04-21 18:43 8.97339 38.78308 7618 ft 18 kts 152°
2026-04-21 18:43 8.97251 38.78412 7615 ft 21 kts 87°
2026-04-21 18:44 8.97270 38.78476 7616 ft 0 kts 69°
2026-04-21 18:44 8.97271 38.78478 7616 ft 4 kts 69°
2026-04-21 18:44 8.97340 38.78700 7616 ft 69 kts 74°
2026-04-21 18:44 8.97540 38.79378 7613 ft 133 kts 74°
2026-04-21 18:45 8.97813 38.80438 7835 ft 164 kts 76°
2026-04-21 18:45 8.98136 38.81530 8532 ft 163 kts 73°
2026-04-21 18:45 8.98446 38.82641 9318 ft 159 kts 75°
2026-04-21 18:45 8.98752 38.83767 9901 ft 180 kts 75°
2026-04-21 18:46 8.99116 38.85096 10094 ft 211 kts 75°
2026-04-21 18:46 8.99527 38.86594 10385 ft 233 kts 75°
2026-04-21 18:46 8.99597 38.88272 10933 ft 247 kts 105°
2026-04-21 18:46 8.98773 38.89795 11829 ft 253 kts 130°
2026-04-21 18:47 8.97299 38.90830 12576 ft 267 kts 158°
2026-04-21 18:47 8.95448 38.91064 13387 ft 275 kts 187°
2026-04-21 18:47 8.93674 38.90352 14213 ft 277 kts 219°
2026-04-21 18:47 8.92423 38.88882 14987 ft 279 kts 238°
2026-04-21 18:48 8.91428 38.87163 15680 ft 287 kts 241°
2026-04-21 18:48 8.90434 38.85397 16463 ft 290 kts 235°
2026-04-21 18:48 8.88965 38.83991 17113 ft 298 kts 207°
2026-04-21 18:48 8.86990 38.83141 17380 ft 321 kts 198°
2026-04-21 18:49 8.84812 38.82410 17585 ft 345 kts 196°
2026-04-21 18:49 8.82436 38.81650 17753 ft 369 kts 196°
2026-04-21 18:49 8.80785 38.81119 17961 ft 380 kts 196°
2026-04-21 18:49 8.77372 38.79997 18692 ft 389 kts 197°
2026-04-21 18:50 8.74788 38.79131 19357 ft 391 kts 197°
2026-04-21 18:50 8.72193 38.78252 19976 ft 395 kts 198°
2026-04-21 18:50 8.70255 38.77594 20377 ft 399 kts 198°
2026-04-21 18:50 8.68107 38.76865 20801 ft 403 kts 198°
2026-04-21 18:51 8.65425 38.75956 21325 ft 408 kts 198°
2026-04-21 18:51 8.62712 38.75037 21824 ft 413 kts 198°
2026-04-21 18:51 8.59977 38.74112 22380 ft 416 kts 198°
2026-04-21 18:51 8.57228 38.73184 22919 ft 419 kts 198°
2026-04-21 18:52 8.54447 38.72245 23432 ft 422 kts 198°
2026-04-21 18:52 8.51644 38.71299 23838 ft 427 kts 198°
2026-04-21 18:52 8.48835 38.70351 24361 ft 426 kts 198°
2026-04-21 18:52 8.46012 38.69397 24764 ft 429 kts 198°
2026-04-21 18:53 8.43163 38.68435 25134 ft 433 kts 198°
2026-04-21 18:53 8.40340 38.67482 25623 ft 432 kts 198°
2026-04-21 18:53 8.37483 38.66517 26125 ft 433 kts 199°
2026-04-21 18:53 8.34615 38.65549 26583 ft 434 kts 199°
2026-04-21 18:54 8.31753 38.64583 27037 ft 435 kts 199°
2026-04-21 18:54 8.28868 38.63610 27447 ft 437 kts 199°
2026-04-21 18:54 8.25970 38.62632 27844 ft 440 kts 199°
2026-04-21 18:54 8.23064 38.61652 28250 ft 442 kts 199°
2026-04-21 18:55 8.21126 38.60998 28512 ft 443 kts 199°
2026-04-21 18:55 8.17199 38.59674 29022 ft 446 kts 199°
2026-04-21 18:55 8.14248 38.58679 29363 ft 449 kts 199°
2026-04-21 18:55 8.11306 38.57687 29629 ft 453 kts 199°
2026-04-21 18:56 8.08295 38.56672 29834 ft 458 kts 199°
2026-04-21 18:56 8.05257 38.55648 30116 ft 460 kts 199°
2026-04-21 18:56 8.02208 38.54620 30372 ft 462 kts 199°
2026-04-21 18:56 7.99141 38.53587 30609 ft 465 kts 199°
2026-04-21 18:57 7.96059 38.52550 30852 ft 467 kts 199°
2026-04-21 18:57 7.92973 38.51510 31103 ft 468 kts 199°
2026-04-21 18:57 7.89878 38.50468 31349 ft 470 kts 199°
2026-04-21 18:57 7.86815 38.49437 31640 ft 470 kts 199°
2026-04-21 18:58 7.83703 38.48389 31910 ft 471 kts 199°
2026-04-21 18:58 7.80580 38.47337 32064 ft 475 kts 199°
2026-04-21 18:58 7.77431 38.46278 32216 ft 478 kts 199°
2026-04-21 18:58 7.74278 38.45217 32492 ft 478 kts 199°
2026-04-21 18:59 7.71111 38.44151 32744 ft 479 kts 199°
2026-04-21 18:59 7.67947 38.43087 32989 ft 479 kts 199°
2026-04-21 18:59 7.64787 38.42024 33290 ft 478 kts 199°
2026-04-21 18:59 7.61676 38.40978 33618 ft 477 kts 199°
2026-04-21 19:00 7.58520 38.39916 33949 ft 476 kts 199°
2026-04-21 19:00 7.55381 38.38861 34229 ft 476 kts 199°
2026-04-21 19:00 7.52237 38.37804 34514 ft 475 kts 199°
2026-04-21 19:00 7.49167 38.36570 34782 ft 474 kts 210°
2026-04-21 19:01 7.46535 38.34609 35039 ft 472 kts 226°
2026-04-21 19:01 7.44392 38.32117 35391 ft 469 kts 231°
2026-04-21 19:01 7.42348 38.29550 35689 ft 468 kts 232°
2026-04-21 19:01 7.40327 38.26973 35933 ft 469 kts 232°
2026-04-21 19:02 7.38306 38.24403 36184 ft 469 kts 232°
2026-04-21 19:02 7.36271 38.21840 36482 ft 467 kts 232°
2026-04-21 19:02 7.34229 38.19293 36793 ft 466 kts 232°
2026-04-21 19:02 7.32180 38.16754 37067 ft 465 kts 232°
2026-04-21 19:03 7.30158 38.14259 37316 ft 465 kts 232°
2026-04-21 19:03 7.28115 38.11741 37583 ft 464 kts 232°
2026-04-21 19:03 7.26070 38.09223 37853 ft 463 kts 232°
2026-04-21 19:03 7.24030 38.06710 37982 ft 465 kts 232°
2026-04-21 19:04 7.21973 38.04176 37971 ft 466 kts 232°
2026-04-21 19:04 7.17884 37.99139 37970 ft 463 kts 232°
2026-04-21 19:05 7.13816 37.94127 37977 ft 461 kts 232°
2026-04-21 19:05 7.09757 37.89127 37971 ft 460 kts 232°
2026-04-21 19:06 7.05706 37.84140 37971 ft 460 kts 232°
2026-04-21 19:06 7.01657 37.79156 37965 ft 460 kts 232°
2026-04-21 19:07 6.97623 37.74191 37956 ft 461 kts 232°
2026-04-21 19:07 6.93558 37.69190 37950 ft 462 kts 232°
2026-04-21 19:08 6.89485 37.64181 37948 ft 462 kts 232°
2026-04-21 19:08 6.84845 37.59736 37958 ft 465 kts 211°
2026-04-21 19:09 6.79120 37.56656 37948 ft 466 kts 208°
2026-04-21 19:09 6.73376 37.53695 37939 ft 467 kts 208°
2026-04-21 19:10 6.67602 37.50667 37934 ft 467 kts 209°
2026-04-21 19:10 6.61857 37.47607 37941 ft 466 kts 209°
2026-04-21 19:11 6.56125 37.44539 37943 ft 466 kts 209°
2026-04-21 19:11 6.50442 37.41497 37949 ft 466 kts 209°
2026-04-21 19:12 6.45642 37.38929 37948 ft 466 kts 209°
2026-04-21 19:12 6.38991 37.35374 37961 ft 465 kts 208°
2026-04-21 19:13 6.33264 37.32314 37954 ft 465 kts 208°
2026-04-21 19:13 6.27576 37.29276 37956 ft 466 kts 208°
2026-04-21 19:14 6.21851 37.26218 37952 ft 466 kts 208°
2026-04-21 19:14 6.16121 37.23158 37953 ft 466 kts 208°
2026-04-21 19:15 6.10396 37.20102 37948 ft 466 kts 208°
2026-04-21 19:15 6.04652 37.17036 37949 ft 466 kts 208°
2026-04-21 19:16 5.98923 37.13980 37943 ft 466 kts 208°
2026-04-21 19:16 5.93216 37.10935 37942 ft 467 kts 208°
2026-04-21 19:17 5.84602 37.06342 37939 ft 467 kts 208°
2026-04-21 19:17 5.78882 37.03293 37926 ft 467 kts 208°
2026-04-21 19:18 5.73129 37.00226 37928 ft 467 kts 208°
2026-04-21 19:18 5.67386 36.97166 37919 ft 467 kts 208°
2026-04-21 19:19 5.61631 36.94100 37911 ft 467 kts 208°
2026-04-21 19:19 5.55918 36.91057 37911 ft 467 kts 208°
2026-04-21 19:20 5.50159 36.87990 37903 ft 468 kts 208°
2026-04-21 19:20 5.45378 36.85445 37903 ft 468 kts 208°
2026-04-21 19:21 5.39624 36.82382 37899 ft 468 kts 208°
2026-04-21 19:21 5.32929 36.78819 37897 ft 468 kts 208°
2026-04-21 19:22 5.28149 36.76276 37894 ft 469 kts 208°
2026-04-21 19:22 5.22375 36.73204 37893 ft 468 kts 208°
2026-04-21 19:23 5.16622 36.70144 37888 ft 469 kts 208°
2026-04-21 19:23 5.10847 36.67074 37881 ft 469 kts 208°
2026-04-21 19:24 5.05082 36.64009 37884 ft 468 kts 208°
2026-04-21 19:24 4.99323 36.60948 37877 ft 468 kts 208°
2026-04-21 19:25 4.93596 36.57905 37872 ft 468 kts 208°
2026-04-21 19:25 4.87841 36.54846 37868 ft 468 kts 208°
2026-04-21 19:26 4.82075 36.51783 37863 ft 468 kts 208°
2026-04-21 19:26 4.76306 36.48720 37859 ft 468 kts 208°
2026-04-21 19:27 4.70577 36.45678 37856 ft 468 kts 208°
2026-04-21 19:27 4.64813 36.42617 37848 ft 468 kts 208°
2026-04-21 19:28 4.59087 36.39578 37847 ft 468 kts 208°
2026-04-21 19:28 4.53326 36.36520 37845 ft 468 kts 208°
2026-04-21 19:29 4.47554 36.33458 37840 ft 469 kts 207°
2026-04-21 19:29 4.41784 36.30396 37841 ft 469 kts 207°
2026-04-21 19:30 4.36017 36.27338 37833 ft 469 kts 207°
2026-04-21 19:30 4.30959 36.24655 37838 ft 469 kts 207°
2026-04-21 19:31 4.26161 36.22110 37834 ft 469 kts 207°
2026-04-21 19:31 4.20390 36.19051 37834 ft 469 kts 207°
2026-04-21 19:32 4.14611 36.15987 37833 ft 469 kts 207°
2026-04-21 19:32 4.08873 36.12945 37833 ft 470 kts 207°
2026-04-21 19:33 4.03077 36.09873 37833 ft 470 kts 207°
2026-04-21 19:33 3.97293 36.06813 37837 ft 470 kts 207°
2026-04-21 19:34 3.91487 36.03757 37836 ft 470 kts 207°
2026-04-21 19:34 3.85733 36.00731 37836 ft 470 kts 207°
2026-04-21 19:35 3.77028 35.96148 37839 ft 471 kts 207°
2026-04-21 19:36 3.71234 35.93097 37836 ft 471 kts 207°
2026-04-21 19:36 3.65463 35.90059 37837 ft 471 kts 207°
2026-04-21 19:37 3.59657 35.87003 37838 ft 471 kts 207°
2026-04-21 19:37 3.53830 35.83936 37839 ft 472 kts 207°
2026-04-21 19:38 3.48016 35.80877 37838 ft 472 kts 207°
2026-04-21 19:38 3.42239 35.77837 37837 ft 472 kts 207°
2026-04-21 19:39 3.36410 35.74771 37840 ft 472 kts 207°
2026-04-21 19:39 3.30594 35.71712 37843 ft 472 kts 207°
2026-04-21 19:40 3.24764 35.68645 37841 ft 472 kts 207°
2026-04-21 19:40 3.18983 35.65604 37843 ft 472 kts 206°
2026-04-21 19:41 3.13141 35.62530 37845 ft 472 kts 207°
2026-04-21 19:41 3.07844 35.58651 37852 ft 474 kts 223°
2026-04-21 19:42 3.03168 35.54072 37848 ft 474 kts 224°
2026-04-21 19:42 2.98474 35.49421 37851 ft 474 kts 224°
2026-04-21 19:43 2.93746 35.44806 37859 ft 474 kts 223°
2026-04-21 19:43 2.88999 35.40213 37860 ft 474 kts 223°
2026-04-21 19:44 2.84258 35.35634 37864 ft 474 kts 223°
2026-04-21 19:44 2.79544 35.31080 37870 ft 474 kts 223°
2026-04-21 19:45 2.74804 35.26498 37872 ft 473 kts 223°
2026-04-21 19:45 2.70060 35.21912 37878 ft 473 kts 223°
2026-04-21 19:46 2.65320 35.17331 37885 ft 473 kts 223°
2026-04-21 19:46 2.60579 35.12749 37890 ft 473 kts 223°
2026-04-21 19:47 2.55869 35.08197 37901 ft 473 kts 223°
2026-04-21 19:47 2.51124 35.03612 37911 ft 473 kts 223°
2026-04-21 19:48 2.46383 34.99031 37920 ft 473 kts 223°
2026-04-21 19:48 2.41882 34.94276 37939 ft 473 kts 228°
2026-04-21 19:49 2.37624 34.89252 37935 ft 473 kts 229°
2026-04-21 19:49 2.33379 34.84215 37938 ft 473 kts 229°
2026-04-21 19:50 2.29829 34.80047 37937 ft 473 kts 229°
2026-04-21 19:50 2.24837 34.74223 37936 ft 473 kts 229°
2026-04-21 19:51 2.20552 34.69230 37934 ft 473 kts 229°
2026-04-21 19:51 2.16262 34.64232 37926 ft 472 kts 229°
2026-04-21 19:52 2.11988 34.59250 37926 ft 472 kts 229°
2026-04-21 19:52 2.07711 34.54265 37923 ft 472 kts 229°
2026-04-21 19:53 2.03438 34.49284 37922 ft 472 kts 229°
2026-04-21 19:53 1.99185 34.44328 37918 ft 472 kts 229°
2026-04-21 19:54 1.94905 34.39340 37913 ft 472 kts 229°
2026-04-21 19:54 1.90625 34.34353 37913 ft 472 kts 229°
2026-04-21 19:55 1.86343 34.29363 37915 ft 472 kts 229°
2026-04-21 19:55 1.82055 34.24396 37910 ft 472 kts 227°
2026-04-21 19:56 1.77517 34.19651 37910 ft 472 kts 225°
2026-04-21 19:56 1.72906 34.15028 37911 ft 472 kts 225°
2026-04-21 19:57 1.68284 34.10364 37912 ft 471 kts 225°
2026-04-21 19:57 1.63686 34.05679 37913 ft 472 kts 225°
2026-04-21 19:58 1.59091 34.00981 37918 ft 471 kts 225°
2026-04-21 19:58 1.54509 33.96294 37912 ft 471 kts 225°
2026-04-21 19:59 1.49944 33.91628 37914 ft 471 kts 225°
2026-04-21 19:59 1.45355 33.86939 37917 ft 471 kts 225°
2026-04-21 20:00 1.40786 33.82271 37920 ft 471 kts 225°
2026-04-21 20:00 1.36190 33.77574 37922 ft 471 kts 225°
2026-04-21 20:01 1.31600 33.72885 37923 ft 471 kts 225°
2026-04-21 20:01 1.27011 33.68197 37923 ft 471 kts 225°
2026-04-21 20:02 1.23200 33.64304 37930 ft 471 kts 225°
2026-04-21 20:02 1.17870 33.58858 37936 ft 471 kts 225°
2026-04-21 20:03 1.13272 33.54162 37931 ft 471 kts 225°
2026-04-21 20:03 1.08685 33.49476 37934 ft 471 kts 225°
2026-04-21 20:04 1.04127 33.44821 37941 ft 471 kts 225°
2026-04-21 20:04 0.99519 33.40114 37942 ft 470 kts 225°
2026-04-21 20:05 0.94943 33.35439 37944 ft 470 kts 225°
2026-04-21 20:05 0.90385 33.30784 37952 ft 470 kts 225°
2026-04-21 20:06 0.85805 33.26106 37952 ft 470 kts 225°
2026-04-21 20:06 0.81243 33.21447 37962 ft 471 kts 225°
2026-04-21 20:07 0.76669 33.16773 37959 ft 471 kts 225°
2026-04-21 20:07 0.72855 33.12875 37966 ft 471 kts 225°
2026-04-21 20:08 0.67487 33.07385 37968 ft 471 kts 225°
2026-04-21 20:08 0.62934 33.02730 37969 ft 471 kts 225°
2026-04-21 20:09 0.58335 32.98027 37976 ft 471 kts 225°
2026-04-21 20:09 0.53746 32.93335 37980 ft 471 kts 225°
2026-04-21 20:10 0.49940 32.89444 37978 ft 471 kts 225°
2026-04-21 20:10 0.45349 32.84750 37989 ft 471 kts 225°
2026-04-21 20:11 0.40774 32.80073 37990 ft 471 kts 225°
2026-04-21 20:11 0.36217 32.75413 37996 ft 471 kts 225°
2026-04-21 20:12 0.31631 32.70725 37997 ft 471 kts 225°
2026-04-21 20:12 0.27051 32.66042 38011 ft 470 kts 225°
2026-04-21 20:13 0.22507 32.61396 38019 ft 470 kts 225°
2026-04-21 20:13 0.17927 32.56714 38036 ft 470 kts 225°
2026-04-21 20:14 0.13344 32.52028 38043 ft 470 kts 225°
2026-04-21 20:14 0.08805 32.47385 38046 ft 470 kts 225°
2026-04-21 20:15 0.04241 32.42701 38048 ft 470 kts 226°
2026-04-21 20:15 -0.00149 32.37848 38049 ft 470 kts 229°
2026-04-21 20:16 -0.04468 32.32937 38045 ft 470 kts 229°
2026-04-21 20:16 -0.08812 32.28034 38039 ft 470 kts 228°
2026-04-21 20:17 -0.13147 32.23179 38032 ft 470 kts 228°
2026-04-21 20:17 -0.17508 32.18306 38013 ft 470 kts 228°
2026-04-21 20:18 -0.21866 32.13436 38008 ft 470 kts 228°
2026-04-21 20:18 -0.26193 32.08598 37998 ft 470 kts 228°
2026-04-21 20:19 -0.30550 32.03727 37997 ft 469 kts 228°
2026-04-21 20:19 -0.34903 31.98860 37992 ft 469 kts 228°
2026-04-21 20:20 -0.39267 31.93981 37983 ft 469 kts 228°
2026-04-21 20:20 -0.43586 31.89151 37982 ft 469 kts 228°
2026-04-21 20:21 -0.47936 31.84287 37975 ft 469 kts 228°
2026-04-21 20:21 -0.52289 31.79420 37969 ft 469 kts 228°
2026-04-21 20:22 -0.56639 31.74556 37966 ft 469 kts 228°
2026-04-21 20:22 -0.63122 31.67304 37960 ft 468 kts 228°
2026-04-21 20:23 -0.67462 31.62439 37965 ft 468 kts 229°
2026-04-21 20:23 -0.71670 31.57466 37971 ft 468 kts 230°
2026-04-21 20:24 -0.75825 31.52456 37978 ft 468 kts 230°
2026-04-21 20:24 -0.80002 31.47449 37985 ft 468 kts 230°
2026-04-21 20:25 -0.84186 31.42458 37988 ft 468 kts 230°
2026-04-21 20:25 -0.88340 31.37507 37996 ft 468 kts 229°
2026-04-21 20:26 -0.92526 31.32516 38005 ft 468 kts 229°
2026-04-21 20:26 -0.96714 31.27521 38013 ft 468 kts 229°
2026-04-21 20:27 -1.00904 31.22540 38017 ft 468 kts 228°
2026-04-21 20:27 -1.05263 31.17745 38024 ft 468 kts 226°
2026-04-21 20:28 -1.09722 31.12981 38028 ft 468 kts 226°
2026-04-21 20:28 -1.14151 31.08204 38038 ft 468 kts 226°
2026-04-21 20:29 -1.16364 31.05801 37663 ft 474 kts 226°
2026-04-21 20:29 -1.18595 31.03373 37008 ft 470 kts 227°
2026-04-21 20:29 -1.20791 31.00979 36248 ft 461 kts 227°
2026-04-21 20:29 -1.22941 30.98636 35471 ft 455 kts 227°
2026-04-21 20:30 -1.25046 30.96342 34625 ft 452 kts 227°
2026-04-21 20:30 -1.27162 30.94037 33706 ft 450 kts 227°
2026-04-21 20:30 -1.29279 30.91732 32719 ft 449 kts 226°
2026-04-21 20:30 -1.31405 30.89417 31750 ft 458 kts 226°
2026-04-21 20:31 -1.33608 30.87020 30707 ft 479 kts 226°
2026-04-21 20:31 -1.35905 30.84521 29451 ft 494 kts 226°
2026-04-21 20:31 -1.38234 30.81983 28118 ft 493 kts 226°
2026-04-21 20:31 -1.40562 30.79446 26837 ft 496 kts 226°
2026-04-21 20:32 -1.42913 30.76884 25608 ft 498 kts 226°
2026-04-21 20:32 -1.45233 30.74365 24445 ft 485 kts 225°
2026-04-21 20:32 -1.47604 30.72047 23277 ft 470 kts 221°
2026-04-21 20:32 -1.50002 30.69943 22018 ft 458 kts 219°
2026-04-21 20:33 -1.52380 30.67944 20846 ft 447 kts 218°
2026-04-21 20:33 -1.54726 30.65982 19859 ft 435 kts 218°
2026-04-21 20:33 -1.57017 30.64045 18918 ft 428 kts 219°
2026-04-21 20:33 -1.59267 30.62118 17921 ft 424 kts 219°
2026-04-21 20:34 -1.61509 30.60179 16929 ft 431 kts 219°
2026-04-21 20:34 -1.63788 30.58197 15930 ft 434 kts 219°
2026-04-21 20:34 -1.66032 30.56237 14959 ft 421 kts 219°
2026-04-21 20:34 -1.68199 30.54339 14032 ft 406 kts 219°
2026-04-21 20:35 -1.70305 30.52497 13047 ft 398 kts 219°
2026-04-21 20:35 -1.72355 30.50705 12135 ft 393 kts 218°
2026-04-21 20:35 -1.74413 30.48909 11296 ft 392 kts 219°
2026-04-21 20:35 -1.76474 30.47110 10961 ft 391 kts 219°
2026-04-21 20:36 -1.78472 30.45363 10715 ft 369 kts 219°
2026-04-21 20:36 -1.80333 30.43734 10497 ft 342 kts 218°
2026-04-21 20:36 -1.82042 30.42240 10336 ft 318 kts 218°
2026-04-21 20:36 -1.83650 30.40835 10197 ft 297 kts 218°
2026-04-21 20:37 -1.85156 30.39521 10072 ft 278 kts 218°
2026-04-21 20:37 -1.86598 30.38263 9866 ft 271 kts 218°
2026-04-21 20:37 -1.87995 30.37043 9828 ft 267 kts 218°
2026-04-21 20:37 -1.89424 30.35830 9724 ft 267 kts 211°
2026-04-21 20:38 -1.91083 30.35163 9598 ft 250 kts 185°
2026-04-21 20:38 -1.92760 30.35173 9498 ft 235 kts 171°
2026-04-21 20:38 -1.94346 30.35346 9402 ft 227 kts 170°
2026-04-21 20:38 -1.95900 30.35521 9189 ft 223 kts 170°
2026-04-21 20:39 -1.97442 30.35688 8956 ft 221 kts 171°
2026-04-21 20:39 -1.98970 30.35503 8669 ft 225 kts 204°
2026-04-21 20:39 -2.00065 30.34411 8452 ft 228 kts 246°
2026-04-21 20:39 -2.00224 30.32863 8249 ft 227 kts 280°
2026-04-21 20:40 -1.99902 30.31331 7982 ft 224 kts 280°
2026-04-21 20:40 -1.99625 30.29807 7703 ft 221 kts 279°
2026-04-21 20:40 -1.99368 30.28328 7436 ft 216 kts 279°
2026-04-21 20:40 -1.99118 30.26889 7165 ft 202 kts 279°
2026-04-21 20:41 -1.98892 30.25593 6948 ft 180 kts 279°
2026-04-21 20:41 -1.98683 30.24394 6723 ft 173 kts 278°
2026-04-21 20:41 -1.98478 30.23213 6511 ft 171 kts 278°
2026-04-21 20:41 -1.98275 30.22045 6295 ft 170 kts 279°
2026-04-21 20:42 -1.98073 30.20886 6072 ft 169 kts 279°
2026-04-21 20:42 -1.97873 30.19734 5830 ft 167 kts 279°
2026-04-21 20:42 -1.97678 30.18608 5587 ft 163 kts 279°
2026-04-21 20:42 -1.97491 30.17497 5338 ft 161 kts 277°
2026-04-21 20:43 -1.97307 30.16405 5209 ft 160 kts 280°
2026-04-21 20:43 -1.97122 30.15297 5004 ft 161 kts 279°
2026-04-21 20:43 -1.96907 30.14218 4899 ft 151 kts 281°
2026-04-21 20:43 -1.96756 30.13291 4885 ft 117 kts 277°
2026-04-21 20:44 -1.96644 30.12636 4881 ft 73 kts 282°
2026-04-21 20:44 -1.96610 30.12441 4885 ft 5 kts 272°
2026-04-21 20:44 -1.96597 30.12416 4881 ft 4 kts 337°
2026-04-21 20:44 -1.96587 30.12427 4885 ft 11 kts 62°
2026-04-21 20:45 -1.96611 30.12551 4880 ft 18 kts 109°
2026-04-21 20:45 -1.96632 30.12652 4884 ft 11 kts 100°
2026-04-21 20:45 -1.96645 30.12725 4883 ft 11 kts 100°
2026-04-21 20:45 -1.96658 30.12797 4880 ft 10 kts 100°
2026-04-21 20:46 -1.96670 30.12866 4879 ft 10 kts 99°
2026-04-21 20:46 -1.96682 30.12934 4879 ft 10 kts 99°
2026-04-21 20:46 -1.96693 30.12999 4881 ft 9 kts 99°
2026-04-21 20:46 -1.96706 30.13063 4884 ft 9 kts 102°
2026-04-21 20:47 -1.96718 30.13124 4880 ft 9 kts 101°
2026-04-21 20:47 -1.96730 30.13185 4877 ft 9 kts 100°
2026-04-21 20:47 -1.96739 30.13244 4879 ft 8 kts 99°
2026-04-21 20:47 -1.96747 30.13301 4882 ft 8 kts 87°
2026-04-21 20:48 -1.96713 30.13343 4886 ft 8 kts 28°
2026-04-21 20:48 -1.96661 30.13359 4886 ft 8 kts 11°
2026-04-21 20:48 -1.96618 30.13386 4885 ft 7 kts 58°
2026-04-21 20:48 -1.96595 30.13431 4884 ft 7 kts 45°
2026-04-21 20:49 -1.96547 30.13438 4878 ft 7 kts 19°
2026-04-21 20:49 -1.96501 30.13446 4885 ft 7 kts 340°
2026-04-21 20:49 -1.96483 30.13423 4883 ft 0 kts 295°